[[{"header":{"parameterUnit":"m.s-1","parameterCategory":1,"la1":30.2992,"la2":30.254,"lo1":-89.0895,"lo2":-89.0443,"dy":0.0025,"dx":0.0025,"nx":19,"ny":19,"refTime":"2026-03-31T21:00:00:Z","depth":0,"parameterNumber":2,"parameterNumberName":"U-component_of_WINDS"},"data":[0,0,0,-4.6031,-4.6033,-4.6138,-4.6139,-4.6283,-4.6285,0,0,0,0,0,0,0,0,0,0,0,-4.6007,-4.6008,-4.6031,-4.6034,-4.6138,-4.6139,-4.6283,-4.6285,0,0,0,0,0,0,0,0,0,0,0,-4.6006,-4.6008,-4.601,-4.6034,-4.6138,-4.6139,-4.6283,-4.62,0,0,0,0,0,0,0,0,0,0,-4.6096,-4.6081,-4.6008,-4.601,-4.6035,-4.6138,-4.6139,-4.6195,-4.6205,-4.6241,0,-4.6276,0,-4.6283,-4.6295,-4.6296,0,0,0,-4.6027,-4.6073,-4.6095,-4.601,-4.6036,-4.6138,-4.6089,-4.62,-4.6211,-4.6253,-4.6278,-4.6283,-4.6285,-4.6296,-4.6297,-4.6527,-4.6528,0,0,-4.6022,-4.6029,-4.6088,-4.6103,-4.6089,-4.6086,-4.6093,-4.6207,-4.6233,-4.6278,-4.6286,-4.6288,-4.6297,-4.6299,-4.6525,-4.6527,0,0,0,-4.6009,-4.6026,-4.6045,-4.6097,-4.6115,-4.6089,-4.6097,-4.6228,-4.6234,-4.6287,-4.6289,-4.6298,-4.63,-4.6524,-4.6526,-4.66,0,0,0,-4.6005,-4.6018,-4.6042,-4.6048,-4.6114,-4.6173,-4.6116,-4.6226,-4.6238,-4.6289,-4.6298,-4.6302,-4.6522,-4.6525,-4.6594,-4.6632,0,0,0,-4.5998,-4.6017,-4.6035,-4.6048,-4.6094,-4.6171,-4.6183,-4.6228,-4.624,-4.6296,-4.6302,-4.6521,-4.6525,-4.659,-4.6624,-4.6694,0,0,0,-4.5991,-4.6099,-4.6037,-4.6158,-4.6093,-4.6217,-4.6182,-4.6274,-4.6331,-4.6299,-4.6523,-4.6526,-4.6588,-4.662,-4.6689,-4.6752,-4.6779,0,0,-4.6131,-4.6116,-4.6187,-4.6134,-4.6271,-4.6201,-4.6348,-4.6392,-4.639,-4.6481,-4.6486,-4.6596,-4.6624,-4.6693,-4.6936,-4.6958,0,0,0,-4.6233,-4.6284,-4.6319,-4.6374,-4.6412,-4.6447,-4.6468,-4.6484,-4.6562,-4.6439,-4.6641,-4.6657,-4.6697,-4.6727,-4.6745,-4.6778,-4.6541,-4.654,-4.654,-4.644,-4.6433,-4.6549,-4.6555,-4.661,-4.6631,-4.6674,-4.67,-4.6676,-4.6724,-4.675,-4.6899,-4.6934,-4.6948,-4.6982,-4.6785,-4.6785,-4.6786,-4.6786,-4.6642,-4.6712,-4.668,-4.6781,-4.6773,-4.6857,-4.6883,-4.6864,-4.694,-4.6878,-4.6913,-4.6844,-4.6972,-4.7002,-4.6791,-4.679,-4.679,-4.6789,-4.6789,-4.6774,-4.6806,-4.6827,-4.6906,-4.6969,-4.6972,-4.7047,-4.7037,-4.7028,-4.7063,-4.7088,-4.7087,-4.7082,-4.7077,-4.7077,-4.7078,-4.7078,-4.7079,-4.7079,-4.6902,-4.6923,-4.6988,-4.7039,-4.7073,-4.7117,-4.7142,-4.7176,-4.721,-4.7196,-4.7197,-4.7167,-4.6988,-4.6941,-4.7087,-4.7085,-4.7084,-4.7084,-4.7083,-4.7105,-4.7058,-4.7158,-4.7193,-4.7252,-4.7314,-4.7303,-4.7372,-4.7398,-4.7436,-4.74,-4.727,-4.7253,-4.7238,-4.7199,-4.7403,-4.7403,-4.7403,-4.7403,-4.7214,-4.7206,-4.7306,-4.7363,-4.7417,-4.7417,-4.753,-4.7551,-4.7565,-4.7581,-4.7551,-4.75,-4.7485,-4.7477,-4.7456,-4.742,-4.7675,-4.7675,-4.7676,-4.7337,-4.7334,-4.7432,-4.7446,-4.7492,-4.7532,-4.7637,-4.7702,-4.7709,-4.7687,-4.7593,-4.7581,-4.7499,-4.7473,-4.7444,-4.7413,-4.7346,0,0]},{"header":{"parameterUnit":"m.s-1","parameterCategory":1,"la1":30.2992,"la2":30.254,"lo1":-89.0895,"lo2":-89.0443,"dy":0.0025,"dx":0.0025,"nx":19,"ny":19,"refTime":"2026-03-31T21:00:00:Z","depth":0,"parameterNumber":3,"parameterNumberName":"V-component_of_WINDS"},"data":[0,0,0,2.851,2.8511,2.8556,2.8556,2.8622,2.8623,0,0,0,0,0,0,0,0,0,0,0,2.8502,2.8503,2.851,2.8511,2.8556,2.8557,2.8622,2.8623,0,0,0,0,0,0,0,0,0,0,0,2.8502,2.8503,2.8503,2.8512,2.8556,2.8557,2.8622,2.8585,0,0,0,0,0,0,0,0,0,0,2.8539,2.8537,2.8502,2.8503,2.8512,2.8556,2.8557,2.8583,2.8587,2.8605,0,2.8623,0,2.8624,2.8628,2.8628,0,0,0,2.8507,2.8534,2.8542,2.8504,2.8512,2.8556,2.8535,2.8585,2.859,2.8611,2.8624,2.8626,2.8625,2.8628,2.8628,2.8752,2.8753,0,0,2.8504,2.8513,2.8538,2.8545,2.854,2.8533,2.8536,2.8588,2.8602,2.8624,2.8628,2.8626,2.8629,2.8629,2.8751,2.8752,0,0,0,2.85,2.8511,2.8517,2.8543,2.855,2.8535,2.8538,2.86,2.8602,2.8628,2.8627,2.8629,2.863,2.875,2.8751,2.88,0,0,0,2.8499,2.8509,2.8516,2.8522,2.8549,2.8576,2.855,2.8598,2.8604,2.8627,2.8629,2.8631,2.8749,2.8751,2.8796,2.882,0,0,0,2.8497,2.8508,2.8517,2.8522,2.8542,2.8575,2.8579,2.8599,2.8603,2.8628,2.8631,2.8749,2.875,2.8793,2.8816,2.8856,0,0,0,2.8498,2.8557,2.8518,2.8584,2.8542,2.8605,2.8579,2.8624,2.8651,2.8629,2.8749,2.8751,2.8793,2.8813,2.8853,2.8892,2.8909,0,0,2.8578,2.8567,2.8606,2.8572,2.8644,2.8597,2.8676,2.8692,2.8685,2.873,2.8733,2.8797,2.8815,2.8856,2.9002,2.9015,0,0,0,2.8634,2.8661,2.8679,2.8706,2.8721,2.8736,2.8739,2.8745,2.8783,2.871,2.8823,2.8833,2.8856,2.8875,2.8886,2.8906,2.876,2.876,2.876,2.8757,2.8749,2.8812,2.8809,2.8836,2.884,2.8861,2.887,2.8851,2.8878,2.8891,2.8981,2.9002,2.9011,2.9032,2.891,2.8911,2.8911,2.8911,2.8873,2.8912,2.8889,2.8942,2.8932,2.8976,2.8983,2.8969,2.9008,2.8969,2.8989,2.8948,2.9026,2.9044,2.8914,2.8914,2.8913,2.8913,2.8913,2.8953,2.897,2.8979,2.9019,2.9051,2.9046,2.9086,2.9075,2.9064,2.9084,2.9098,2.9097,2.9095,2.9092,2.9092,2.9092,2.9093,2.9093,2.9093,2.9033,2.9041,2.9077,2.91,2.9118,2.9139,2.9146,2.9162,2.9177,2.9166,2.9166,2.9146,2.9036,2.9008,2.9098,2.9097,2.9096,2.9096,2.9096,2.9154,2.9126,2.9181,2.9199,2.9227,2.926,2.9247,2.9282,2.9294,2.9314,2.929,2.921,2.9198,2.9189,2.9166,2.9291,2.9291,2.9291,2.9291,2.9222,2.9216,2.9272,2.9301,2.9329,2.9323,2.9386,2.9393,2.9394,2.9402,2.9382,2.9351,2.9342,2.9335,2.9323,2.9302,2.9458,2.9458,2.9459,2.9296,2.9293,2.9349,2.9353,2.9374,2.9393,2.9452,2.9487,2.9482,2.9465,2.9407,2.94,2.935,2.9334,2.9314,2.9295,2.9256,0,0]}]]